Ontario, CA

10:26 PM PDT on July 23, 2017 (GMT -0700)
Ontario International

Weather History for KONT - June, 2013

Change the Weather History Date:

Thursday, June 13, 2013

  Actual Average Record
Temperature  
Mean Temperature 74 °F 72 °F  
Max Temperature 87 °F 85 °F 98 °F (2007)
Min Temperature 61 °F 59 °F 51 °F (1998)
Degree Days  
Heating Degree Days 0 0  
Month to date heating degree days 0 1  
Since 1 June heating degree days 0 1  
Since 1 July heating degree days 1271 1533  
Cooling Degree Days 9 7  
Month to date cooling degree days 109 74  
Year to date cooling degree days 400 240  
Since 1 June cooling degree days 109 74  
Growing Degree Days 23 (Base 50)    
Moisture  
Dew Point 55 °F    
Average Humidity 56    
Maximum Humidity 84    
Minimum Humidity 27    
Precipitation  
Precipitation 0.00 in 0.00 in 0.02 in (1954)
Month to date precipitation T 0.10  
Year to date precipitation 2.79 10.36  
Since 1 July precipitation 5.56  
Snow  
Snow 0.00 in - - ()
Month to date snowfall 0.0  
Year to date snowfall 0.0  
Snow Depth 0.00 in    
Sea Level Pressure  
Sea Level Pressure 29.93 in    
Wind  
Wind Speed 5 mph (WSW)    
Max Wind Speed 15 mph    
Max Gust Speed 44 mph    
Visibility 6 miles    
Events      
T = Trace of Precipitation, MM = Missing Value Source: NWS Daily Summary

Daily Weather History Graph

Daily Weather History Graph

Search for Another Location

Airport or City:

Trip Planner

Search our weather history database for the weather conditions in past years. The results will help you decide how hot, cold, wet, or windy it might be!

Date:

Astronomy

Jun. 13, 2013 Rise Set
Actual Time 5:38 AM PDT 8:02 PM PDT
Civil Twilight 5:09 AM PDT 8:31 PM PDT
Nautical Twilight 4:33 AM PDT 9:07 PM PDT
Astronomical Twilight 3:54 AM PDT 9:47 PM PDT
Moon 10:09 AM PDT (6/13) 11:23 PM PDT (6/13)
Length of Visible Light 15h 22m
Length of Day
14h 24m
Waxing Crescent, 22% of the Moon is Illuminated
Jun 13
Waxing Crescent
Jun 16
First Quarter
Jun 23
Full
Jun 29
Last Quarter
Jul 8
New

Hourly Weather History & Observations

Time (PDT) Temp. Heat Index Dew Point Humidity Pressure Visibility Wind Dir Wind Speed Gust Speed Precip Events Conditions
12:53 AM 62.1 °F - 55.9 °F 80% 29.96 in 6.0 mi West 3.5 mph - N/A   Haze
1:53 AM 61.0 °F - 55.0 °F 81% 29.94 in 6.0 mi West 3.5 mph - N/A   Haze
2:00 AM 60.8 °F - 55.4 °F 82% 29.97 in 4.0 mi Calm Calm - N/A   Haze
2:53 AM 61.0 °F - 55.0 °F 81% 29.94 in 4.0 mi West 4.6 mph - N/A   Haze
3:00 AM 60.8 °F - 55.4 °F 82% 29.97 in 4.0 mi West 4.6 mph - N/A   Haze
3:53 AM 62.1 °F - 55.9 °F 80% 29.94 in 4.0 mi WSW 5.8 mph - N/A   Haze
4:53 AM 62.1 °F - 55.9 °F 80% 29.95 in 5.0 mi SSW 4.6 mph - N/A   Haze
5:53 AM 62.1 °F - 55.9 °F 80% 29.96 in 3.0 mi Calm Calm - N/A   Haze
6:53 AM 62.1 °F - 55.9 °F 80% 29.97 in 3.0 mi Calm Calm - N/A   Haze
7:53 AM 62.1 °F - 55.9 °F 80% 29.98 in 3.0 mi Calm Calm - N/A   Haze
8:53 AM 64.0 °F - 55.9 °F 75% 29.99 in 3.0 mi South 3.5 mph - N/A   Haze
9:25 AM 66.2 °F - 55.4 °F 68% 30.01 in 3.0 mi South 3.5 mph - N/A   Haze
9:48 AM 66.2 °F - 55.4 °F 68% 30.01 in 3.0 mi SSW 5.8 mph - N/A   Haze
9:53 AM 66.9 °F - 55.9 °F 68% 29.99 in 3.0 mi SW 5.8 mph - N/A   Haze
10:53 AM 69.1 °F - 55.9 °F 63% 29.98 in 4.0 mi Variable 4.6 mph - N/A   Haze
11:53 AM 75.9 °F - 55.0 °F 48% 29.96 in 5.0 mi West 8.1 mph - N/A   Haze
12:53 PM 80.1 °F 80.0 °F 54.0 °F 40% 29.95 in 9.0 mi Variable 6.9 mph - N/A   Clear
1:53 PM 82.0 °F - 51.1 °F 34% 29.92 in 10.0 mi West 4.6 mph - N/A   Clear
2:53 PM 86.0 °F - 51.1 °F 30% 29.90 in 10.0 mi WSW 12.7 mph - N/A   Clear
3:53 PM 86.0 °F - 48.9 °F 28% 29.88 in 10.0 mi West 11.5 mph 43.7 mph N/A   Clear
4:53 PM 84.9 °F - 51.1 °F 31% 29.86 in 10.0 mi SW 11.5 mph - N/A   Clear
5:53 PM 84.0 °F - 51.1 °F 32% 29.85 in 10.0 mi WNW 10.4 mph - N/A   Clear
6:53 PM 80.1 °F 80.0 °F 54.0 °F 40% 29.86 in 10.0 mi WSW 12.7 mph - N/A   Clear
7:53 PM 75.0 °F - 55.0 °F 50% 29.87 in 10.0 mi West 11.5 mph - N/A   Clear
8:53 PM 71.1 °F - 55.9 °F 59% 29.88 in 10.0 mi WSW 9.2 mph - N/A   Partly Cloudy
9:53 PM 68.0 °F - 55.9 °F 65% 29.89 in 10.0 mi WSW 10.4 mph - N/A   Partly Cloudy
10:53 PM 64.9 °F - 55.9 °F 73% 29.90 in 10.0 mi WSW 5.8 mph - N/A   Partly Cloudy
11:53 PM 64.0 °F - 55.9 °F 75% 29.89 in 10.0 mi SW 4.6 mph - N/A   Partly Cloudy